カタログに戻る

SL-14 DEB

運用中PO
NORAD 45328·DEBRIS·🇷🇺 Russia

打ち上げ Aug 15, 1991 から Plesetsk Cosmodrome

Loading…

次のパス (今後24時間)

TLE

最新Source: Space-Track

元期: Sep 14, 2026, 05:41 UTC

1 45328U 91056BS  26257.23712850  .00001338  00000-0  21178-2 0  9999
2 45328  82.5505 355.9981 0105763 276.3008  82.6094 13.46862714320755

AllMySatでSL-14 DEBをリアルタイム追跡

Download on the App Store